EW0680 Weather Reports


time (UTC)temp
C
wind
direction
speed
KPH
gust
KPH
rain 1hr
cm
rain 24hr
cm
rain mn
cm
humidity
%
barometer
mb
20260504214551 21 294 3.2 11.3 0.00 0.03 0.00 56 1004.8
20260504213049 22 248 4.8 9.7 0.00 0.03 0.00 55 1004.9
20260504211558 22 281 3.2 12.9 0.00 0.03 0.00 53 1005.0
20260504204503 22 233 4.8 12.9 0.00 0.05 0.00 51 1004.8
20260504203009 21 274 4.8 14.5 0.00 0.05 0.00 57 1005.2
20260504201508 21 314 6.4 17.7 0.00 0.05 0.00 58 1005.7
20260504200013 22 304 6.4 14.5 0.00 0.05 0.00 57 1006.1
20260504194513 21 307 4.8 12.9 0.00 0.05 0.00 61 1006.4
20260504193018 21 280 4.8 11.3 0.00 0.05 0.00 57 1006.4
20260504191521 21 248 3.2 11.3 0.00 0.05 0.00 60 1006.4
20260504190021 22 276 4.8 14.5 0.00 0.05 0.00 56 1006.1
20260504184532 22 290 3.2 16.1 0.00 0.05 0.00 58 1006.6
20260504183034 21 260 6.4 14.5 0.00 0.05 0.00 58 1006.7
20260504181535 21 277 4.8 12.9 0.00 0.05 0.00 58 1006.6
20260504180025 22 303 4.8 12.9 0.00 0.05 0.00 55 1006.6
20260504174527 22 292 3.2 16.1 0.00 0.05 0.00 55 1006.2
20260504173029 22 258 3.2 16.1 0.00 0.05 0.00 58 1006.2
20260504171533 22 321 3.2 12.9 0.00 0.05 0.00 57 1006.2
20260504120114 10 209 0.0 4.8 0.00 0.05 0.00 78 1008.3
20260504081522 8 262 0.0 0.0 0.00 0.05 0.00 79 1009.5
20260504044525 11 226 1.6 8.0 0.00 0.05 0.00 71 1011.3
20260504043030 10 243 3.2 8.0 0.00 0.05 0.00 71 1011.4
20260504041527 10 211 0.0 6.4 0.00 0.05 0.00 73 1011.7
20260504040030 10 192 0.0 4.8 0.00 0.05 0.00 74 1011.8
20260504034526 10 190 3.2 8.0 0.00 0.05 0.05 76 1012.0
20260504033030 10 193 3.2 8.0 0.00 0.05 0.05 78 1012.1
20260504031541 10 205 3.2 8.0 0.00 0.05 0.05 79 1012.2
20260504030055 10 196 3.2 8.0 0.00 0.05 0.05 79 1012.3
20260504024544 10 190 4.8 8.0 0.00 0.05 0.05 79 1012.6
20260504023050 10 198 4.8 8.0 0.00 0.05 0.05 79 1012.6
20260504021551 10 185 3.2 6.4 0.00 0.05 0.05 78 1012.6
20260504020054 9 179 6.4 11.3 0.00 0.05 0.05 81 1012.7
20260504014605 9 178 3.2 8.0 0.00 0.05 0.05 84 1012.8
20260504013058 9 177 6.4 11.3 0.00 0.05 0.05 84 1012.7
20260504011510 9 173 8.0 11.3 0.00 0.05 0.05 84 1012.7
20260504010011 9 175 6.4 12.9 0.00 0.05 0.05 83 1012.8
20260504004534 9 175 9.7 14.5 0.00 0.05 0.05 82 1012.8
20260504003104 9 170 9.7 17.7 0.00 0.05 0.05 81 1012.7
20260504003004 9 176 9.7 17.7 0.00 0.05 0.05 81 1012.7
20260504001555 9 171 8.0 14.5 0.00 0.05 0.05 81 1012.7
20260504000100 9 157 9.7 16.1 0.00 0.05 0.05 80 1012.8
20260503234510 9 160 11.3 17.7 0.00 0.05 0.05 80 1012.7
20260503233007 9 165 11.3 17.7 0.00 0.05 0.05 80 1012.8
20260503231510 9 166 9.7 16.1 0.00 0.05 0.05 82 1012.7
20260503230012 9 173 11.3 17.7 0.00 0.05 0.05 82 1012.9
20260503224513 8 152 11.3 17.7 0.00 0.05 0.05 82 1013.2
20260503223013 9 165 9.7 17.7 0.00 0.05 0.05 84 1013.5
20260503221516 9 140 11.3 14.5 0.00 0.05 0.05 83 1014.1
20260503220056 8 119 6.4 11.3 0.03 0.05 0.05 84 1014.4